Location: Pcim
(49.7500°N, 19.9670°E)
Time: 23:47:10
(UTC+02:00)

AO-91 - Visible Passes

Search period start: 24 April 2024 00:00
Search period end: 04 May 2024 00:00
Orbit: 441 x 742 km, 97.6° (Epoch: 24 April)

Date Brightness Start Highest point End Pass type
(mag) Time Alt. Az. Time Alt. Az. Time Alt. Az.
24 Apr ? 00:01:13 10° NW 00:01:40 10° WNW 00:02:08 10° WNW visible
24 Apr ? 22:31:40 10° NNE 22:34:41 71° NNE 22:34:41 71° NNE visible
25 Apr ? 22:40:07 10° N 22:43:21 71° NW 22:43:21 71° NW visible
26 Apr ? 21:14:57 10° ENE 21:15:24 11° E 21:15:24 11° E visible
26 Apr ? 22:48:33 10° N 22:51:51 56° WNW 22:51:58 56° W visible
27 Apr ? 21:22:33 10° ENE 21:24:00 14° E 21:24:00 14° E visible
27 Apr ? 22:56:59 10° N 23:00:12 44° WNW 23:00:35 42° W visible
28 Apr ? 21:30:28 10° NE 21:32:35 17° E 21:32:35 17° E visible
28 Apr ? 23:05:24 10° N 23:08:32 35° WNW 23:09:09 32° W visible
29 Apr ? 21:38:29 10° NE 21:41:08 21° E 21:41:08 21° E visible
29 Apr ? 23:13:49 10° N 23:16:48 29° WNW 23:17:41 26° W visible
30 Apr ? 21:46:33 10° NE 21:49:30 26° E 21:49:39 26° E visible
30 Apr ? 23:22:14 10° NNW 23:25:03 24° WNW 23:26:13 20° W visible
01 May ? 21:54:38 10° NNE 21:57:47 32° E 21:58:09 31° ESE visible
01 May ? 23:30:39 10° NNW 23:33:16 20° WNW 23:34:42 16° W visible
02 May ? 22:02:44 10° NNE 22:06:03 40° E 22:06:36 37° SE visible
02 May ? 23:39:05 10° NNW 23:41:26 17° WNW 23:43:10 13° W visible
03 May ? 22:10:50 10° NNE 22:14:16 51° E 22:15:03 42° SE visible
03 May ? 23:47:33 10° NNW 23:49:33 15° WNW 23:51:36 10° W visible
